Location: Most
(50.5133°N, 13.6207°E)
Time: 18:36:07
(UTC+02:00)

ISS - Pass Details

Date: 23 May 2019
Orbit: 407 x 410 km, 51.6° (Epoch: 23 May)

Event Time Altitude Azimuth Distance (km) Brightness Sun altitude
Rises 00:17:53 0° 281° (W) 2,337 0.3 -18.3°
Reaches altitude 10° 00:19:58 10° 282° (WNW) 1,475 -0.7 -18.4°
Maximum altitude 00:23:17 81° 10° (N) 419 -3.8 -18.5°
Enters shadow 00:24:36 34° 95° (E) 703 -2.8 -18.5°
